Theta_e
275 274 274 274 275 275 277 276 276 283 286 287 288 289 290 291 292 292 292 294 295 295 295 295 295 296 296
271 273 273 274 273 273 276 278 276 282 285 286 288 288 289 289 290 290 290 291 292 293 293 293 293 294 295
271 272 273 273 274 274 275 275 278 282 284 285 286 287 287 288 289 289 288 288 288 289 290 291 291 292 293
271 271 272 273 273 273 273 276 276 279 281 283 284 286 287 287 287 286 286 286 287 288 289 289 289 290 291
270 271 271 272 272 274 274 275 275 276 277 278 278 279 279 283 283 284 284 285 286 288 288 289 289 290 291
271 271 272 273 274 274 274 273 272 277 275 276 278 278 278 279 282 284 285 286 286 287 288 288 289 289 290
271 272 273 275 276 275 275 274 273 275 275 273 276 275 278 278 283 284 285 285 286 286 287 287 288 288 289
275 275 274 274 274 274 273 273 274 275 275 271 275 274 276 277 282 283 284 285 285 286 286 286 286 287 287
281 281 281 282 279 273 271 271 271 273 276 274 275 275 277 277 278 283 283 284 284 285 285 285 285 286 285
275 277 278 277 281 278 276 272 271 271 275 273 274 274 271 276 277 278 278 282 283 283 284 284 284 280 279
274 274 274 274 275 275 275 274 272 271 276 275 273 274 273 273 275 277 277 278 278 279 281 281 281 281 276
273 273 273 273 274 275 276 276 276 275 277 277 273 274 273 272 272 276 277 277 276 275 275 278 280 281 281
274 274 275 275 276 276 277 277 277 277 278 277 276 276 275 274 273 272 272 274 275 274 274 274 274 275 274
274 274 276 275 275 275 274 274 273 273 276 277 277 276 273 272 272 270 272 269 272 272 273 273 274 275 275
273 272 272 272 272 273 272 272 270 270 271 272 274 274 273 272 268 270 270 270 271 271 272 271 273 274 275
271 271 270 270 270 271 271 270 269 270 269 269 269 269 268 270 273 269 269 269 270 271 271 269 270 272 274
270 270 270 270 270 270 271 270 269 268 268 268 267 265 262 262 267 274 268 269 269 269 270 269 269 271 273
Wind_Speed
2 1 3 4 5 3 5 5 5 14 17 17 17 17 17 16 18 16 17 18 18 17 17 18 21 22 21
2 3 4 4 5 5 6 5 4 12 18 18 18 18 18 19 16 14 16 19 22 21 20 20 22 22 22
5 3 3 3 4 4 5 4 5 12 15 16 17 17 17 16 16 16 17 20 22 23 24 23 23 22 22
5 6 4 4 3 6 7 4 6 7 10 13 17 17 18 18 18 18 20 22 21 21 21 22 21 22 23
6 5 5 4 5 3 6 6 7 4 7 6 5 5 6 12 15 21 21 19 20 20 21 22 23 24 25
7 8 9 6 5 6 6 7 7 4 4 5 3 5 7 7 17 20 20 21 22 22 23 24 25 25 25
11 9 9 6 5 6 6 6 7 7 9 12 8 10 7 9 20 22 23 23 23 23 24 25 26 27 27
9 7 7 7 9 10 13 13 11 9 9 11 7 9 8 7 20 22 23 24 27 28 28 28 29 29 30
24 24 24 25 19 9 9 8 9 9 7 8 7 8 9 9 9 21 25 25 25 25 25 26 27 27 19
11 17 20 14 21 13 6 7 8 10 8 9 9 8 11 9 9 8 9 20 24 24 23 21 26 13 12
12 11 11 12 10 9 10 9 9 11 9 8 7 8 8 11 10 9 9 9 7 9 19 26 28 26 14
12 12 11 11 10 11 12 11 10 13 11 9 7 7 9 11 12 9 7 5 6 10 11 19 28 32 33
7 7 9 9 10 11 11 11 12 13 12 13 11 11 11 12 8 8 12 9 9 11 12 13 14 13 15
11 11 8 6 6 5 7 7 8 10 13 12 11 10 8 8 9 11 10 11 10 11 13 15 14 14 15
6 5 6 6 7 6 7 8 9 10 9 4 5 7 8 12 10 10 12 13 13 14 15 15 14 14 14
6 6 7 7 7 7 7 8 9 8 6 4 4 6 8 12 17 13 13 14 14 15 15 15 17 14 15
10 9 8 8 11 8 7 6 6 6 6 5 5 6 10 15 11 22 15 14 13 14 14 14 17 16 15
Wind_Direction
243 249 274 279 289 266 279 275 274 304 304 304 303 299 295 295 292 303 307 306 304 303 304 303 307 304 304
267 283 258 274 263 285 288 293 277 292 297 297 296 296 297 291 290 301 306 310 307 304 301 301 298 299 299
267 241 263 275 294 289 280 269 268 282 291 295 295 294 295 294 290 293 308 303 297 293 292 291 290 290 292
251 259 251 262 253 282 289 282 286 284 282 284 282 287 290 293 295 299 296 294 291 289 287 285 285 283 283
250 249 239 231 237 242 271 280 279 260 273 265 262 267 267 281 283 289 292 288 287 286 285 283 282 281 282
235 237 243 231 240 245 259 270 282 238 259 270 246 256 257 268 276 283 285 286 287 288 287 285 283 283 284
230 234 249 238 240 247 248 258 264 266 272 272 270 271 266 264 278 283 284 284 283 285 286 285 285 286 287
253 230 233 229 234 247 253 261 265 262 257 268 264 270 271 267 271 275 280 281 283 283 284 286 287 287 287
252 255 256 250 235 226 239 249 261 262 251 259 257 259 258 259 250 262 271 275 278 283 287 288 286 289 296
246 259 268 274 271 265 258 252 259 271 248 250 262 266 276 262 257 250 248 264 275 280 281 292 298 296 290
239 242 237 238 241 245 249 248 255 258 263 257 264 269 260 282 271 266 265 264 260 267 279 285 287 285 282
230 235 230 230 232 233 238 240 242 251 261 251 258 250 262 269 274 269 256 250 260 269 270 272 277 279 280
243 218 223 224 225 232 237 241 248 250 256 253 247 252 250 256 276 283 282 273 271 271 268 266 269 269 271
239 237 236 201 208 213 231 239 248 255 252 245 242 252 256 259 271 277 276 273 272 268 268 269 267 263 262
216 198 204 210 220 219 230 236 244 254 257 238 247 254 260 268 269 268 274 272 271 269 268 270 266 264 263
242 238 242 240 242 236 236 238 244 246 244 238 247 269 274 268 260 272 268 268 269 269 268 269 271 265 260
247 245 241 232 242 234 226 223 233 242 249 250 249 250 265 268 275 264 270 268 272 269 264 261 266 266 265